Location: Arrington
(35.8681°N, 86.7092°W)
Time: 04:53:33
(UTC+00:00)

STARLINK 1010 - Pass Details

Date: 23 November 2019
Orbit: 348 x 351 km, 53.0° (Epoch: 12 December)

Event Time Altitude Azimuth Distance (km) Brightness Sun altitude
Exits shadow 11:24:13 18° 238° (WSW) 934 4.4 -13.5°
Maximum altitude 11:26:11 65° 317° (NW) 388 2.6 -13.1°
Drops below altitude 10° 11:29:06 10° 41° (NE) 1,313 5.9 -12.5°
Sets 11:31:07 0° 44° (NE) 2,159 7.1 -12.1°
